Location: Clermont
(50.2608°N, 4.3172°E)
Time: 06:26:11
(UTC+00:00)

NOSS 3-2 (A) - Pass Details

Date: 13 August 2020
Orbit: 795 x 1413 km, 63.4° (Epoch: 19 September)

Event Time Altitude Azimuth Distance (km) Brightness Sun altitude
Rises 19:29:28 0° 186° (S) 3,346 6.1 -4.4°
Reaches altitude 10° 19:32:01 10° 176° (S) 2,465 5.3 -4.7°
Maximum altitude 19:36:59 32° 115° (ESE) 1,515 4.0 -5.4°
Drops below altitude 10° 19:42:32 10° 55° (NE) 2,775 5.7 -6.2°
Sets 19:45:34 0° 46° (NE) 3,834 6.5 -6.6°
